This demonstration page uses our WeatherBlox Daily Observations layout. Learn more.

Left ArrowRight Arrow

39.12711, -84.51439

Hourly Observations for August 30, 2016

Temp ( °F °C ) Dew Point ( °F °C ) Humidity (%) Winds ( mph kmh ) Pressure ( in mb ) Visibility ( mi km ) Precip ( " mm )
12:53 am 00:53 Clear with Mist and Fog 71 21.7 71 21.7 100 100 N N/A 30.15 1021 5 8 N/A
1:48 am 01:48 Clear with Mist and Fog 70 21 70 21 100 100 N N/A 30.12 1020 2 3 N/A
1:53 am 01:53 Clear with Mist and Fog 70 21.1 70 21.1 100 100 N N/A 30.15 1021 2 2 N/A
1:59 am 01:59 Clear with Mist and Fog 70 21.1 70 21.1 100 100 N N/A 30.12 1020 3 5 N/A
2:53 am 02:53 Clear with Mist and Fog 70 21.1 70 21.1 100 100 N N/A 30.15 1021 2 3 N/A
3:07 am 03:07 Clear with Mist and Fog 69 20.6 69 20.6 100 100 ENE 3 6 30.12 1020 3 5 N/A
3:53 am 03:53 Clear with Mist and Fog 70 21.1 70 21.1 100 100 NNE 3 6 30.15 1021 6 10 N/A
4:51 am 04:51 Clear with Mist and Fog 68 20 68 20 100 100 N N/A 30.15 1021 2 3 N/A
4:53 am 04:53 Clear with Mist and Fog 68 20 68 20 100 100 N N/A 30.15 1021 1 2 N/A
5:03 am 05:03 Clear with Mist and Fog 68 20 68 20 100 100 N N/A 30.12 1020 3 5 N/A
5:26 am 05:26 Clear with Mist and Fog 68 20 68 20 100 100 N N/A 30.12 1020 2 3 N/A
5:41 am 05:41 Clear with Mist and Fog 68 20 68 20 100 100 N N/A 30.12 1020 1 2 N/A
5:49 am 05:49 Clear with Mist and Fog 68 20 68 20 100 100 N N/A 30.12 1020 3 5 N/A
5:51 am 05:51 Clear with Mist and Fog 68 20 68 20 100 100 N N/A 30.12 1020 2 3 N/A
5:53 am 05:53 Clear with Mist and Fog 68 20 68 20 100 100 N N/A 30.14 1021 1 2 N/A
6:00 am 06:00 Clear with Mist and Fog 66 19 66 19 100 100 N N/A 30.12 1020 1 1 N/A
6:20 am 06:20 Clear with Mist and Fog 66 19 66 19 100 100 N N/A 30.12 1020 2 3 N/A
6:33 am 06:33 Clear with Mist and Fog 67 19.4 67 19.4 100 100 N N/A 30.12 1020 1 1 N/A
6:37 am 06:37 Clear with Fog 66 18.9 66 18.9 100 100 N N/A 30.12 1020 0 0 N/A
6:50 am 06:50 Clear with Mist and Fog 66 19 66 19 100 100 N N/A 30.12 1020 1 2 N/A
6:53 am 06:53 Clear with Patchy Fog 66 18.9 66 18.9 100 100 N N/A 30.14 1021 10 16 N/A
7:53 am 07:53 Sunny with Patchy Fog 67 19.4 67 19.4 100 100 N N/A 30.15 1021 7 11 N/A
8:53 am 08:53 Sunny 73 22.8 69 20.6 87 87 NNE 5 7 30.16 1021 9 14 N/A
9:53 am 09:53 Sunny 76 24.4 70 21.1 82 82 N 3 6 30.16 1021 10 16 N/A
10:53 am 10:53 Sunny 80 26.7 71 21.7 74 74 N N/A 30.15 1021 10 16 N/A
11:17 am 11:17 Sunny 80 26.7 71 21.7 74 74 S 5 7 30.12 1020 10 16 N/A
11:53 am 11:53 Sunny 82 27.8 71 21.7 69 69 N N/A 30.14 1021 10 16 N/A
12:53 pm 12:53 Sunny 85 29.4 69 20.6 59 59 VRB 5 7 30.12 1020 10 16 N/A
1:53 pm 13:53 Sunny 87 30.6 67 19.4 51 51 NNE 6 9 30.11 1020 10 16 N/A
2:53 pm 14:53 Sunny 87 30.6 66 18.9 50 50 NNE 7 11 30.09 1019 10 16 N/A
3:53 pm 15:53 Sunny 89 31.7 66 18.9 47 47 NE 6 9 30.07 1018 10 16 N/A
4:53 pm 16:53 Sunny 89 31.7 65 18.3 45 45 N N/A 30.05 1018 10 16 N/A
5:53 pm 17:53 Sunny 87 30.6 66 18.9 50 50 VRB 3 6 30.02 1017 10 16 N/A
6:53 pm 18:53 Sunny 85 29.4 70 21.1 61 61 N N/A 30.02 1017 10 16 N/A
7:53 pm 19:53 Sunny 77 25 71 21.7 82 82 N N/A 30.01 1016 10 16 N/A
8:53 pm 20:53 Clear 72 22.2 70 21.1 94 94 N N/A 30.02 1017 10 16 N/A
9:53 pm 21:53 Clear 70 21.1 69 20.6 97 97 N N/A 30.05 1018 10 16 N/A
10:53 pm 22:53 Clear 70 21.1 69 20.6 97 97 N N/A 30.06 1018 10 16 N/A
11:53 pm 23:53 Clear 69 20.6 69 20.6 100 100 N N/A 30.05 1018 8 13 N/A

Powered by AerisWeather